Location: Oslo
(59.9170°N, 10.7500°E)
Time: 04:15:46
(UTC+02:00)

ISS - Pass Details

Date: 27 March 2019
Orbit: 408 x 410 km, 51.6° (Epoch: 20 April)

Event Time Altitude Azimuth Distance (km) Brightness Sun altitude
Rises 20:09:27 0° 235° (SW) 2,336 0.5 -10.6°
Reaches altitude 10° 20:11:56 10° 216° (SW) 1,475 -0.8 -10.9°
Maximum altitude 20:14:18 18° 171° (S) 1,070 -2.0 -11.2°
Enters shadow 20:15:27 16° 144° (SE) 1,176 -2.0 -11.3°
